TimeEDT,TemperatureF,Dew PointF,Humidity,Sea Level PressureIn,VisibilityMPH,Wind Direction,Wind SpeedMPH,Gust SpeedMPH,PrecipitationIn,Events,Conditions,WindDirDegrees,DateUTC
12:06 AM,59.0,57.2,94,30.10,1.8,Calm,Calm,-,N/A,,Clear,0,2013-10-03 04:06:00
12:19 AM,59.0,57.2,94,30.10,0.8,Calm,Calm,-,N/A,,Clear,0,2013-10-03 04:19:00
12:40 AM,57.2,55.4,94,30.09,1.5,Calm,Calm,-,N/A,,Clear,0,2013-10-03 04:40:00
12:42 AM,57.2,55.4,94,30.09,3.0,Calm,Calm,-,N/A,,Clear,0,2013-10-03 04:42:00
12:56 AM,59.0,57.0,93,30.08,2.5,Calm,Calm,-,N/A,,Clear,0,2013-10-03 04:56:00
1:06 AM,59.0,57.2,94,30.09,1.2,Calm,Calm,-,N/A,,Clear,0,2013-10-03 05:06:00
1:11 AM,57.2,55.4,94,30.09,0.8,Calm,Calm,-,N/A,,Clear,0,2013-10-03 05:11:00
1:32 AM,57.2,57.2,100,30.09,1.8,Calm,Calm,-,N/A,,Scattered Clouds,0,2013-10-03 05:32:00
1:35 AM,57.2,57.2,100,30.09,3.0,Calm,Calm,-,N/A,,Scattered Clouds,0,2013-10-03 05:35:00
1:53 AM,59.0,57.2,94,30.10,2.0,Calm,Calm,-,N/A,,Scattered Clouds,0,2013-10-03 05:53:00
1:56 AM,59.0,57.0,93,30.08,2.0,Calm,Calm,-,N/A,,Scattered Clouds,0,2013-10-03 05:56:00
2:04 AM,59.0,57.2,94,30.10,3.0,Calm,Calm,-,N/A,,Scattered Clouds,0,2013-10-03 06:04:00
2:15 AM,60.8,57.2,88,30.10,2.5,Calm,Calm,-,N/A,,Mostly Cloudy,0,2013-10-03 06:15:00
2:56 AM,61.0,60.1,97,30.07,2.5,Calm,Calm,-,N/A,,Mostly Cloudy,0,2013-10-03 06:56:00
3:56 AM,61.0,59.0,93,30.06,2.5,ESE,4.6,-,N/A,,Scattered Clouds,110,2013-10-03 07:56:00
4:09 AM,62.6,60.8,94,30.07,3.0,ESE,4.6,-,N/A,,Mostly Cloudy,110,2013-10-03 08:09:00
4:56 AM,61.0,60.1,97,30.06,3.0,Calm,Calm,-,N/A,,Scattered Clouds,0,2013-10-03 08:56:00
5:56 AM,63.0,61.0,93,30.06,4.0,SE,3.5,-,N/A,,Overcast,130,2013-10-03 09:56:00
6:30 AM,62.6,62.6,100,30.08,1.8,Calm,Calm,-,0.00,Rain,Heavy Rain,0,2013-10-03 10:30:00
6:37 AM,62.6,62.6,100,30.08,2.0,Calm,Calm,-,0.00,Rain-Thunderstorm,Light Rain,0,2013-10-03 10:37:00
6:48 AM,62.6,62.6,100,30.08,3.0,Calm,Calm,-,0.00,Rain-Thunderstorm,Light Rain,0,2013-10-03 10:48:00
6:56 AM,63.0,62.1,97,30.07,2.5,SSE,3.5,-,0.00,Rain-Thunderstorm,Light Rain,160,2013-10-03 10:56:00
7:14 AM,64.4,62.6,94,30.08,3.0,SSE,4.6,-,0.00,Rain-Thunderstorm,Light Rain,160,2013-10-03 11:14:00
7:33 AM,64.4,62.6,94,30.08,2.5,South,3.5,-,0.00,Thunderstorm,Overcast,180,2013-10-03 11:33:00
7:40 AM,64.4,62.6,94,30.09,1.8,Calm,Calm,-,0.00,Rain,Rain,0,2013-10-03 11:40:00
7:56 AM,64.0,63.0,96,30.08,1.8,Calm,Calm,-,0.00,,Overcast,0,2013-10-03 11:56:00
8:56 AM,66.0,64.0,93,30.08,2.0,South,5.8,-,N/A,,Mostly Cloudy,170,2013-10-03 12:56:00
9:19 AM,66.2,64.4,94,30.10,3.0,South,5.8,-,N/A,,Scattered Clouds,180,2013-10-03 13:19:00
9:56 AM,68.0,64.9,90,30.09,3.0,Variable,3.5,-,N/A,,Partly Cloudy,0,2013-10-03 13:56:00
10:56 AM,72.0,66.0,81,30.08,5.0,South,6.9,-,N/A,,Haze,190,2013-10-03 14:56:00
11:56 AM,75.9,66.9,74,30.06,6.0,SW,9.2,-,N/A,,Haze,220,2013-10-03 15:56:00
12:46 PM,77.0,66.2,69,30.08,8.0,SW,8.1,-,N/A,,Mostly Cloudy,220,2013-10-03 16:46:00
12:56 PM,79.0,66.9,66,30.06,8.0,Variable,6.9,-,N/A,,Mostly Cloudy,0,2013-10-03 16:56:00
1:05 PM,75.2,66.2,73,30.07,8.0,SW,6.9,-,N/A,,Scattered Clouds,230,2013-10-03 17:05:00
1:56 PM,80.1,64.0,58,30.04,10.0,SW,12.7,19.6,N/A,Thunderstorm,Clear,230,2013-10-03 17:56:00
2:15 PM,80.6,62.6,54,30.04,10.0,SW,13.8,18.4,N/A,,Clear,230,2013-10-03 18:15:00
2:56 PM,81.0,63.0,54,30.02,10.0,WSW,13.8,-,0.01,Thunderstorm,Clear,250,2013-10-03 18:56:00
3:15 PM,78.8,62.6,57,30.03,10.0,West,12.7,18.4,N/A,,Scattered Clouds,260,2013-10-03 19:15:00
3:56 PM,80.1,63.0,56,30.01,10.0,WSW,10.4,-,N/A,,Scattered Clouds,250,2013-10-03 19:56:00
4:56 PM,77.0,63.0,62,30.03,10.0,WSW,11.5,-,N/A,,Clear,240,2013-10-03 20:56:00
5:25 PM,75.2,64.4,69,30.03,10.0,WSW,5.8,-,N/A,Thunderstorm,Scattered Clouds,240,2013-10-03 21:25:00
5:56 PM,66.9,62.1,84,30.04,3.0,WNW,6.9,-,0.00,Rain-Thunderstorm,Thunderstorms and Rain,290,2013-10-03 21:56:00
6:09 PM,66.2,64.4,94,30.04,4.0,West,3.5,-,0.00,Rain,Light Rain,270,2013-10-03 22:09:00
6:56 PM,66.9,64.0,90,30.03,10.0,SSE,3.5,-,0.00,,Mostly Cloudy,160,2013-10-03 22:56:00
7:56 PM,64.9,64.0,97,30.03,10.0,SSE,3.5,-,N/A,,Partly Cloudy,160,2013-10-03 23:56:00
8:56 PM,64.0,62.1,93,30.04,10.0,SSE,3.5,-,N/A,,Partly Cloudy,150,2013-10-04 00:56:00
9:56 PM,64.9,62.1,90,30.04,10.0,South,3.5,-,N/A,,Clear,190,2013-10-04 01:56:00
10:56 PM,64.9,63.0,93,30.06,9.0,Calm,Calm,-,N/A,,Mostly Cloudy,0,2013-10-04 02:56:00